Regional Weather Roundup
Issued by NWS Kansas City/Pleasant Hill, MO

Home | Current Version | Previous Version | Graphics & Text | Print | Product List | Glossary Off
Versions: 1 2 3 4 5 6 7 8 9 10 11 12 13 14 15 16 17 18 19 20 21 22 23 24 25 26 27

000
ASUS43 KEAX 021610
RWREAX

WEATHER ROUNDUP FOR EASTERN KANSAS AND NORTHWEST MISSOURI
NATIONAL WEATHER SERVICE KANSAS CITY/PLEASANT HILL MO
1000 AM CST FRI DEC 02 2016

KSZ040-057-103>105-MOZ028-029-037-043-021700-
...KANSAS CITY METROPOLITAN AREA...

CITY           SKY/WX    TMP DP  RH WIND       PRES   REMARKS
K.C. INTL      SUNNY     39  28  64 CALM      30.28R
K.C. DOWNTOWN  SUNNY     38  31  76 CALM      30.28R
LEES SUMMIT    SUNNY     42  29  59 CALM      30.27S
OLATHE - IXD   SUNNY     41  28  60 VRB3      30.27R
OLATHE - OJC   SUNNY     41  27  57 E3        30.27R
LAWRENCE       SUNNY     33  30  88 CALM      30.29R

$$

MOZ001>008-011>017-020>025-030>033-038>040-044>046-053-054-021700-
...NORTHERN AND CENTRAL MISSOURI...

CITY           SKY/WX    TMP DP  RH WIND       PRES   REMARKS
ST. JOSEPH     SUNNY     32  29  88 CALM      30.30R
MOSBY          SUNNY     34  30  86 CALM      30.29R
WARRENSBURG    SUNNY     37  30  75 CALM      30.28R
WHITEMAN AFB   MOSUNNY   41  28  60 CALM      30.26S
CLINTON        MOSUNNY   41  32  70 CALM      30.28R
SEDALIA        SUNNY     44  27  51 CALM      30.28R
WARSAW         NOT AVBL
CHILLICOTHE      N/A     35  31  85 VRB5      30.30R WCI  31
KIRKSVILLE     SUNNY     38  31  76 NW6       30.26R WCI  33

$$

MOZ041-047>049-056>058-063>065-088>090-097-021700-
...EASTERN AND SOUTHERN MISSOURI...

CITY           SKY/WX    TMP DP  RH WIND       PRES   REMARKS
ST. LOUIS INTL MOSUNNY   42  29  59 W7        30.28R
SPIRIT OF STL  SUNNY     39  31  72 W7        30.28R WCI  34
COLUMBIA       SUNNY     41  29  62 NW5       30.27R
JEFFERSON CITY MOSUNNY   37  30  75 NW3       30.28S
ROLLA          SUNNY     44  28  53 NW5       30.25R
OSAGE BEACH    SUNNY     44  28  53 CALM      30.28R
SPRINGFIELD    SUNNY     48  24  39 E7        30.24R
BRANSON        MOSUNNY   45  28  53 E6        30.25R
JOPLIN         SUNNY     48  23  37 E14       30.23R
WEST PLAINS    SUNNY     46  28  49 E7        30.27R

$$

IAZ060-094-KSZ022-034>040-054-083-096-NEZ052-066-093-021700-
...KANSAS...SOUTHEAST NEBRASKA AND IOWA...

CITY           SKY/WX    TMP DP  RH WIND       PRES   REMARKS
TOPEKA         SUNNY     33  28  81 CALM      30.28R
MANHATTAN      SUNNY     32  27  81 NE3       30.27R
EMPORIA        SUNNY     39  28  64 N5        30.25R
CHANUTE        PTSUNNY   49  25  39 E9        30.23R
WICHITA        MOSUNNY   43  28  55 N6        30.24R
OMAHA          MOSUNNY   37  29  72 CALM      30.28R
LINCOLN        SUNNY     33  27  78 N3        30.29R
FALLS CITY     SUNNY     33  28  81 CALM      30.28R
LAMONI         SUNNY     38  31  76 NW6       30.25R WCI  33
DES MOINES     CLOUDY    38  32  79 NW6       30.25R WCI  33

$$





USA.gov is the U.S. government's official web portal to all federal, state and local government web resources and services.